Weather in Kagel Canyon

United States     34°20′00″N   118°23′06″W
temp.,
°C
wind,
m/s
gust,
m/s
humid.,
%
clouds,
%
prec.,
mm/h
press.,
hPa
HPBL,
m
7 may, fri
fri723:00+16sse22683 0.0 1016357
02:00+15sse22757 0.0 1015337
05:00+14sse22773 0.0 1015296
08:00+15s21726 0.0 1016433
11:00+20s32470 0.0 1015795
14:00+25s43330 0.0 10131320
17:00+23s33380 0.0 10111106
20:00+19s22551 0.0 1012482
8 may, sat
sat823:00+16sse23660 0.0 1012383
02:00+15sse22730 0.0 1012303
05:00+15ssw11690 0.0 1012123
08:00+16sw11591 0.0 1013400
11:00+23s33290 0.0 1012863
14:00+26s43280 0.0 10111112
17:00+25s33360 0.0 1010878
20:00+20s32500 0.0 1011363
9 may, sun
sun923:00+17s22650 0.0 1012312
02:00+15sse22710 0.0 1011273
05:00+14sse22760 0.0 1012271
08:00+15sse21702 0.0 1012432
11:00+20sse32460 0.0 1012852
14:00+23sse43380 0.0 10101180
17:00+22s42420 0.0 10081085
20:00+18s33590 0.0 1009579
10 may, mon
mon1023:00+15sse337343 0.0 1010590
02:00+15sse337393 0.0 1009724
05:00+14se227084 0.0 1010734
08:00+15sse21654 0.0 1011646
11:00+20s32440 0.0 1010986
14:00+24s43360 0.0 10091190
17:00+22s42440 0.0 1009989
20:00+19ssw21560 0.0 1010503
11 may, tue
tue1123:00+16s21662 0.0 1012425
02:00+15s21721 0.0 1012357
05:00+14s11750 0.0 1012223
08:00+16ssw10670 0.0 1014347
11:00+23s32350 0.0 1013673
14:00+27sse42280 0.0 1012934
17:00+27s33310 0.0 1011884
20:00+21s22480 0.0 1013332